USA 485 (62756 NORAD) Tracking and Keplerian Element Data

This shows tracking and keplerian element data for the satellite.

Feedback or suggestion? Click here.




ElementValue
Catalog62756
NameUSA 485
Epoch Orbit180
Epoch Day32.60368197
Epoch Year2025
RAAN269.2872
Inclination43.0066
Eccentricity0.0003084
Argument of Perigee251.4322
Mean Anonmoly108.6216
Mean Motion15.86119591
Decay Rate0.00310504
L11 62756U 25014X 25032.60368197 .00310504 00000+0 11718-2 0 9992
L22 62756 43.0066 269.2872 0003084 251.4322 108.6216 15.86119591 1806



Live tracking and technical data element details for USA 485 (NORAD 62756). USA 485 can be tracked NOW for your location showing map with azimuth and elevation plus other details from your city location.







IsCatalogInMostPopularTable: catalog: 62756, numindb: 1
Update: records affected: 1



GetName: 62756 USA 485

Hit Count: updated at: Sun, 09 Feb 2025 14:18:25 GMT